Farmington, MO

11:06 AM CDT on July 23, 2017 (GMT -0500)
Farmington Regional

Weather History for KFAM - February, 2013

Change the Weather History Date:

Monday, February 4, 2013

  Actual Average Record
Temperature  
Mean Temperature 44 °F -  
Max Temperature 55 °F 43 °F 73 °F (2008)
Min Temperature 32 °F 25 °F 6 °F (2007)
Degree Days  
Heating Degree Days 22    
Moisture  
Dew Point 29 °F    
Average Humidity 60    
Maximum Humidity 76    
Minimum Humidity 42    
Precipitation  
Precipitation 0.00 in - - ()
Sea Level Pressure  
Sea Level Pressure 29.90 in    
Wind  
Wind Speed 11 mph (SSW)    
Max Wind Speed 22 mph    
Max Gust Speed 28 mph    
Visibility 10 miles    
Events      
Averages and records for this station are not official NWS values.
T = Trace of Precipitation, MM = Missing Value Source: NWS Daily Summary

Daily Weather History Graph

Daily Weather History Graph

Search for Another Location

Airport or City:

Trip Planner

Search our weather history database for the weather conditions in past years. The results will help you decide how hot, cold, wet, or windy it might be!

Date:

Astronomy

Feb. 04, 2013 Rise Set
Actual Time 7:02 AM CST 5:29 PM CST
Civil Twilight 6:35 AM CST 5:56 PM CST
Nautical Twilight 6:04 AM CST 6:27 PM CST
Astronomical Twilight 5:33 AM CST 6:58 PM CST
Moon 1:37 AM CST (2/4) 11:54 AM CST (2/4)
Length of Visible Light 11h 21m
Length of Day
10h 26m
Last Quarter, 37% of the Moon is Illuminated
Feb 4
Last Quarter
Feb 10
New
Feb 17
First Quarter
Feb 25
Full
Mar 4
Last Quarter

Hourly Weather History & Observations

Time (CST) Temp. Windchill Dew Point Humidity Pressure Visibility Wind Dir Wind Speed Gust Speed Precip Events Conditions
12:15 AM 32.0 °F 26.4 °F 17.6 °F 55% 30.02 in 10.0 mi South 5.8 mph - N/A   Clear
12:35 AM 32.0 °F 24.8 °F 17.6 °F 55% 30.02 in 10.0 mi South 8.1 mph - N/A   Clear
12:55 AM 33.8 °F 25.8 °F 17.6 °F 52% 30.01 in 10.0 mi South 10.4 mph - N/A   Clear
1:15 AM 33.8 °F 27.0 °F 19.4 °F 56% 30.01 in 10.0 mi South 8.1 mph - N/A   Clear
1:35 AM 33.8 °F 26.4 °F 19.4 °F 56% 29.99 in 10.0 mi South 9.2 mph - N/A   Clear
1:55 AM 33.8 °F 25.3 °F 19.4 °F 56% 29.99 in 10.0 mi South 11.5 mph - N/A   Clear
2:15 AM 33.8 °F 25.3 °F 19.4 °F 56% 29.98 in 10.0 mi South 11.5 mph - N/A   Clear
2:35 AM 33.8 °F 25.3 °F 19.4 °F 56% 29.97 in 10.0 mi South 11.5 mph - N/A   Clear
2:55 AM 33.8 °F 25.3 °F 19.4 °F 56% 29.96 in 10.0 mi South 11.5 mph - N/A   Clear
3:15 AM 35.6 °F 27.1 °F 21.2 °F 56% 29.95 in 10.0 mi South 12.7 mph 16.1 mph N/A   Clear
4:55 AM 37.4 °F 28.5 °F 19.4 °F 48% 29.91 in 10.0 mi South 15.0 mph 20.7 mph N/A   Overcast
5:15 AM 37.4 °F 28.2 °F 19.4 °F 48% 29.91 in 10.0 mi South 16.1 mph - N/A   Mostly Cloudy
5:35 AM 37.4 °F 27.8 °F 19.4 °F 48% 29.90 in 10.0 mi South 17.3 mph 20.7 mph N/A   Mostly Cloudy
5:55 AM 37.4 °F 29.8 °F 21.2 °F 52% 29.90 in 10.0 mi South 11.5 mph - N/A   Mostly Cloudy
6:15 AM 37.4 °F 30.3 °F 21.2 °F 52% 29.90 in 10.0 mi South 10.4 mph - N/A   Mostly Cloudy
6:35 AM 37.4 °F 29.8 °F 21.2 °F 52% 29.90 in 10.0 mi South 11.5 mph - N/A   Mostly Cloudy
6:55 AM 39.2 °F 31.6 °F 21.2 °F 49% 29.90 in 10.0 mi SSW 12.7 mph 16.1 mph N/A   Mostly Cloudy
7:15 AM 39.2 °F 30.5 °F 21.2 °F 49% 29.89 in 10.0 mi South 16.1 mph - N/A   Mostly Cloudy
7:35 AM 41.0 °F 31.6 °F 21.2 °F 45% 29.88 in 10.0 mi South 20.7 mph 27.6 mph N/A   Scattered Clouds
7:55 AM 42.8 °F 34.8 °F 21.2 °F 42% 29.88 in 10.0 mi SSW 17.3 mph 24.2 mph N/A   Clear
8:15 AM 42.8 °F 33.8 °F 21.2 °F 42% 29.87 in 10.0 mi South 21.9 mph 26.5 mph N/A   Partly Cloudy
8:35 AM 42.8 °F 35.1 °F 23.0 °F 46% 29.88 in 10.0 mi SSW 16.1 mph 21.9 mph N/A   Mostly Cloudy
8:55 AM 42.8 °F 37.0 °F 24.8 °F 49% 29.90 in 10.0 mi WSW 10.4 mph - N/A   Overcast
9:15 AM 42.8 °F 34.5 °F 24.8 °F 49% 29.89 in 10.0 mi South 18.4 mph 25.3 mph N/A   Overcast
9:35 AM 42.8 °F 36.6 °F 28.4 °F 57% 29.92 in 10.0 mi WSW 11.5 mph - N/A   Overcast
9:55 AM 41.0 °F 34.3 °F 30.2 °F 65% 29.90 in 10.0 mi South 11.5 mph - N/A   Overcast
10:15 AM 41.0 °F 33.9 °F 30.2 °F 65% 29.91 in 10.0 mi SSW 12.7 mph 17.3 mph N/A   Overcast
10:35 AM 41.0 °F 33.1 °F 32.0 °F 70% 29.90 in 10.0 mi South 15.0 mph 20.7 mph N/A   Overcast
10:55 AM 41.0 °F 34.3 °F 32.0 °F 70% 29.90 in 10.0 mi SSW 11.5 mph - N/A   Overcast
11:15 AM 42.8 °F 35.8 °F 33.8 °F 70% 29.89 in 10.0 mi SSW 13.8 mph 20.7 mph N/A   Overcast
11:35 AM 42.8 °F 34.8 °F 35.6 °F 76% 29.88 in 10.0 mi SSW 17.3 mph 24.2 mph N/A   Overcast
11:55 AM 46.4 °F 40.4 °F 37.4 °F 71% 29.88 in 10.0 mi SW 13.8 mph 21.9 mph N/A   Overcast
12:15 PM 48.2 °F - 37.4 °F 66% 29.87 in 10.0 mi SW 16.1 mph 21.9 mph N/A   Mostly Cloudy
12:35 PM 50.0 °F - 37.4 °F 62% 29.86 in 10.0 mi SW 19.6 mph 26.5 mph N/A   Clear
12:55 PM 51.8 °F - 37.4 °F 58% 29.85 in 10.0 mi SW 13.8 mph 26.5 mph N/A   Scattered Clouds
1:15 PM 50.0 °F - 37.4 °F 62% 29.85 in 10.0 mi SW 13.8 mph - N/A   Overcast
1:35 PM 51.8 °F - 39.2 °F 62% 29.84 in 10.0 mi WSW 15.0 mph - N/A   Mostly Cloudy
1:55 PM 53.6 °F - 39.2 °F 58% 29.84 in 10.0 mi WSW 16.1 mph - N/A   Scattered Clouds
2:15 PM 53.6 °F - 37.4 °F 54% 29.83 in 10.0 mi WSW 11.5 mph - N/A   Partly Cloudy
2:35 PM 53.6 °F - 39.2 °F 58% 29.82 in 10.0 mi SW 15.0 mph 20.7 mph N/A   Partly Cloudy
2:55 PM 55.4 °F - 39.2 °F 54% 29.81 in 10.0 mi WSW 12.7 mph 19.6 mph N/A   Clear
3:15 PM 55.4 °F - 39.2 °F 54% 29.82 in 10.0 mi SW 11.5 mph - N/A   Clear
3:35 PM 55.4 °F - 39.2 °F 54% 29.82 in 10.0 mi SW 13.8 mph - N/A   Clear
3:55 PM 55.4 °F - 39.2 °F 54% 29.81 in 10.0 mi SSW 13.8 mph - N/A   Clear
4:15 PM 55.4 °F - 39.2 °F 54% 29.81 in 10.0 mi SSW 12.7 mph - N/A   Clear
4:35 PM 53.6 °F - 39.2 °F 58% 29.81 in 10.0 mi South 13.8 mph - N/A   Partly Cloudy
4:55 PM 51.8 °F - 39.2 °F 62% 29.82 in 10.0 mi South 11.5 mph - N/A   Clear
5:15 PM 50.0 °F - 39.2 °F 66% 29.82 in 10.0 mi South 11.5 mph - N/A   Clear
5:35 PM 48.2 °F - 39.2 °F 71% 29.83 in 10.0 mi South 6.9 mph - N/A   Clear
5:55 PM 46.4 °F 43.5 °F 39.2 °F 76% 29.84 in 10.0 mi SSW 5.8 mph - N/A   Clear
6:15 PM 46.4 °F 42.4 °F 37.4 °F 71% 29.87 in 10.0 mi NNW 8.1 mph - N/A   Partly Cloudy
6:35 PM 48.2 °F - 39.2 °F 71% 29.87 in 10.0 mi Calm Calm - N/A   Mostly Cloudy
6:55 PM 48.2 °F - 33.8 °F 58% 29.89 in 10.0 mi North 8.1 mph - N/A   Mostly Cloudy
7:15 PM 46.4 °F 42.9 °F 30.2 °F 53% 29.90 in 10.0 mi North 6.9 mph - N/A   Mostly Cloudy
7:35 PM 44.6 °F 40.2 °F 30.2 °F 57% 29.91 in 10.0 mi North 8.1 mph - N/A   Mostly Cloudy
7:55 PM 42.8 °F 38.0 °F 30.2 °F 61% 29.91 in 10.0 mi North 8.1 mph - N/A   Partly Cloudy
8:15 PM 42.8 °F 38.6 °F 30.2 °F 61% 29.92 in 10.0 mi NNE 6.9 mph - N/A   Clear
8:35 PM 41.0 °F 37.1 °F 28.4 °F 61% 29.93 in 10.0 mi NNE 5.8 mph - N/A   Clear
8:55 PM 41.0 °F 38.0 °F 30.2 °F 65% 29.93 in 10.0 mi North 4.6 mph - N/A   Clear
9:15 PM 39.2 °F 35.9 °F 28.4 °F 65% 29.94 in 10.0 mi North 4.6 mph - N/A   Clear
9:35 PM 39.2 °F 37.0 °F 28.4 °F 65% 29.95 in 10.0 mi North 3.5 mph - N/A   Clear
9:55 PM 37.4 °F 32.8 °F 28.4 °F 70% 29.96 in 10.0 mi NNW 5.8 mph - N/A   Clear
10:15 PM 37.4 °F 32.1 °F 28.4 °F 70% 29.97 in 10.0 mi NNW 6.9 mph - N/A   Clear
10:35 PM 35.6 °F 29.9 °F 28.4 °F 75% 29.96 in 10.0 mi NNW 6.9 mph - N/A   Clear
10:55 PM 35.6 °F 31.7 °F 26.6 °F 70% 29.96 in 10.0 mi North 4.6 mph - N/A   Clear
11:15 PM 33.8 °F - 26.6 °F 75% 29.94 in 10.0 mi Calm Calm - N/A   Clear
11:35 PM 33.8 °F 29.6 °F 26.6 °F 75% 29.96 in 10.0 mi North 4.6 mph - N/A   Clear
11:55 PM 33.8 °F 30.8 °F 26.6 °F 75% 29.95 in 10.0 mi North 3.5 mph - N/A   Clear